Tracking 34717 objects as of 15-Jul-2026
HD Live streaming from Space Station
objects crossing your sky now

TITAN 3C TRANSTAGE R/B

Track TITAN 3C TRANSTAGE R/B now!


NORAD ID: 5854
Int'l Code: 1972-010B
Perigee: 35,411.2 km
Apogee: 35,949.6 km
Inclination: 1.0 °
Period: 1,430.3 minutes
Semi major axis: 42051 km
RCS: Unknown
Launch date: March 1, 1972
Source: United States (US)
Launch site: AIR FORCE EASTERN TEST RANGE (AFETR)

Note: This is a ROCKET BODY
Your satellite tracking list
Your tracking list is empty




NASA's NSSDC Master Catalog

Two Line Element Set (TLE):
1 05854U 72010B   26195.49779068 -.00000118  00000-0  00000-0 0  9996
2 05854   0.9947  91.4732 0064024 338.6821 290.5175  1.00677512 25179
Source of the keplerian elements: McCants